Temperature
21 21 21 21 21 21 22 23 24 23 24 23 23 23 22 21 20 18 18 18 18 17 17 17 18 18 18 18 18 18 17 17 17 17 17 17 17 17 17 17 17 17 18 18 18 18 18 18 18
21 21 21 22 22 22 22 23 23 23 23 23 23 23 22 20 19 18 18 18 18 17 17 17 18 18 18 17 17 17 17 17 17 17 17 17 17 17 17 17 17 17 17 17 17 17 17 18 18
21 21 22 22 23 23 22 23 23 23 23 23 23 22 20 19 19 18 18 18 17 17 17 17 18 17 17 17 17 17 17 17 17 17 17 17 17 17 17 17 17 17 17 17 17 17 18 18 18
21 22 23 23 23 23 23 23 24 23 23 23 22 21 19 19 18 18 18 18 18 17 17 18 18 17 17 17 17 17 17 17 17 17 17 17 17 17 17 17 17 17 17 17 17 17 17 18 18
22 23 23 23 23 24 25 24 24 23 23 22 21 20 18 18 18 18 18 18 18 17 18 18 18 17 17 17 17 17 17 17 17 17 17 17 17 17 17 17 17 17 17 17 17 17 17 17 18
23 23 23 22 23 24 24 24 24 23 23 22 21 20 18 18 18 18 18 18 18 18 18 18 17 17 17 17 17 17 17 17 17 17 17 17 17 17 17 17 17 17 17 17 17 17 17 17 17
23 23 23 23 23 23 24 24 24 23 23 22 21 20 18 18 18 18 18 18 18 18 18 18 17 17 17 17 17 17 17 17 17 17 17 17 17 17 17 17 17 17 17 17 17 17 17 17 17
23 23 23 23 23 23 24 24 23 23 22 22 21 20 18 18 18 18 18 18 18 18 18 18 18 17 17 17 17 17 17 17 17 17 17 17 16 16 17 17 17 17 17 17 17 17 17 17 17
23 23 22 23 23 23 24 23 23 22 22 21 21 20 18 18 18 18 18 18 18 18 18 18 18 18 17 17 17 17 17 17 17 17 17 17 17 16 17 17 17 17 17 17 17 17 17 17 17
24 22 23 24 24 24 24 23 23 23 22 21 20 19 19 18 18 19 18 18 18 18 18 18 18 18 18 17 17 17 17 17 17 17 17 17 17 17 17 17 17 17 17 17 17 17 17 17 17
25 23 24 24 24 24 24 23 23 23 21 21 20 19 19 19 19 19 19 19 18 18 18 18 18 18 18 17 17 17 17 17 17 17 17 17 17 17 17 17 17 17 17 17 17 17 17 17 17
25 24 24 24 24 24 24 23 23 22 21 21 20 19 19 19 19 19 19 19 18 18 18 18 18 18 18 17 17 17 17 17 17 17 17 17 17 17 17 17 17 17 17 17 17 17 17 17 17
24 24 24 24 24 24 23 23 22 22 21 21 20 20 20 20 19 19 19 19 18 18 18 18 18 18 18 17 17 17 17 17 17 17 17 17 17 17 17 17 17 17 17 17 17 17 17 17 17
24 24 24 24 24 23 23 23 22 21 21 21 20 20 20 20 20 19 19 19 19 18 18 18 18 18 18 17 17 17 17 17 17 17 17 17 17 17 17 17 17 17 17 17 17 17 17 17 17
24 24 24 24 24 24 23 22 22 22 21 21 20 20 20 20 20 20 19 19 19 19 18 18 18 18 18 17 17 17 17 17 17 17 17 17 17 17 17 16 16 16 16 17 17 17 16 16 16
24 23 22 23 24 24 23 21 22 21 21 21 21 20 20 20 20 20 19 19 19 19 18 18 18 18 17 17 17 17 17 16 16 16 17 17 17 16 16 16 16 16 16 16 16 16 16 16 16
23 22 22 23 24 24 23 21 22 22 22 21 21 20 20 20 20 19 19 19 19 19 18 18 17 17 17 17 17 16 16 16 16 16 16 16 16 16 16 16 16 16 16 16 16 16 16 16 16
22 23 23 23 24 24 23 22 22 22 22 22 21 20 20 20 20 19 19 19 19 18 18 18 17 17 17 17 17 16 16 16 16 16 16 16 16 16 16 16 16 16 16 16 16 16 16 16 16
24 23 23 24 25 24 23 23 22 22 22 22 22 21 21 20 20 19 19 19 19 18 18 18 17 17 17 17 16 16 16 16 16 16 16 16 16 16 16 16 16 16 16 16 16 16 16 16 16
24 23 23 24 25 24 23 23 23 23 22 22 22 22 21 21 20 19 19 19 19 18 18 18 18 17 17 16 16 16 16 16 16 16 16 16 16 16 16 16 16 15 15 15 15 15 16 16 16
24 23 24 24 24 24 23 22 23 23 23 23 23 22 22 21 20 20 19 19 19 18 18 18 17 17 17 16 16 16 16 16 16 16 16 16 15 15 15 15 15 15 15 15 15 15 15 15 16
23 24 24 24 23 23 23 21 22 23 22 23 23 22 22 21 21 20 19 19 19 18 18 18 17 17 17 17 16 16 16 16 16 16 15 16 15 15 15 15 15 15 15 15 15 15 15 15 15
24 25 25 24 23 23 24 22 22 23 22 22 23 23 22 21 21 20 20 19 19 18 18 18 17 17 17 17 17 16 16 16 16 16 16 16 15 15 15 15 15 15 15 15 15 15 15 15 15
25 25 25 24 24 22 24 23 22 23 23 23 23 23 22 22 21 21 20 19 19 18 18 18 18 17 17 17 17 17 16 16 16 16 16 16 15 15 15 15 15 15 15 15 15 15 15 15 15
25 23 22 22 21 22 25 24 24 25 25 24 23 23 22 22 21 21 20 19 19 18 18 18 18 17 17 17 17 17 16 16 16 16 16 16 16 16 16 15 15 15 15 15 15 15 15 15 15
24 23 21 21 22 23 25 24 25 26 26 25 24 23 23 22 22 21 20 20 19 18 18 18 18 17 17 17 17 17 17 16 16 16 16 16 16 16 15 15 15 15 15 15 15 15 15 15 14
24 24 24 23 23 23 24 25 25 25 25 25 24 23 23 22 22 21 20 20 19 18 18 18 18 17 17 17 17 17 17 17 16 16 16 16 16 16 15 15 15 15 15 15 15 15 14 14 14
25 25 24 23 22 22 23 24 23 24 24 25 24 24 23 22 22 21 20 20 19 19 18 18 18 18 18 17 17 17 17 17 17 16 16 16 16 16 15 15 15 15 15 15 15 14 14 14 14
25 24 24 24 23 22 21 22 25 24 24 24 24 24 23 22 22 21 21 20 19 19 18 18 18 18 18 17 17 17 17 17 17 16 16 16 16 15 15 15 15 15 15 15 14 14 14 14 14
25 25 24 23 23 23 22 22 25 25 25 24 24 23 23 23 22 21 21 20 20 19 19 18 18 18 18 18 17 17 17 17 16 16 16 16 16 16 15 15 15 15 15 15 14 14 14 14 14
Wind_Speed
9 10 7 2 2 1 3 5 8 8 8 9 10 11 13 13 9 8 3 7 11 12 14 14 15 15 16 15 15 15 16 16 15 15 15 14 14 14 13 14 14 13 13 13 13 13 12 12 11
10 6 4 3 2 2 4 7 10 10 7 7 10 13 14 12 11 8 5 7 11 13 14 14 15 16 16 16 15 15 15 15 14 14 14 14 13 13 13 13 13 13 13 13 13 13 12 11 10
10 6 3 2 1 3 6 9 10 9 7 7 9 11 9 8 8 6 7 9 12 14 15 15 15 16 16 15 15 14 14 14 14 14 13 13 13 13 13 12 12 12 12 13 13 12 12 11 10
5 3 2 1 6 9 9 9 8 8 7 8 10 10 9 8 6 8 8 10 13 13 15 15 16 16 15 15 14 14 15 14 13 13 13 13 13 13 12 12 12 11 12 12 11 11 11 10 9
3 2 1 4 7 9 10 9 9 9 8 11 12 11 10 10 10 9 8 10 13 13 14 15 16 16 15 15 15 15 14 14 13 12 11 11 12 12 12 12 11 11 10 10 10 10 10 9 9
2 1 2 5 8 8 9 9 10 11 11 11 11 11 8 7 8 8 9 9 11 12 13 15 15 16 15 14 14 13 12 11 11 10 9 9 10 10 11 11 10 10 10 9 9 9 9 8 8
2 1 3 7 8 8 8 9 9 10 10 9 9 9 8 7 6 8 9 9 10 10 11 13 14 14 14 14 12 11 9 9 8 7 6 7 7 8 9 10 9 9 9 8 7 7 6 6 6
2 0 4 6 8 8 9 9 9 10 9 8 7 8 8 7 7 9 9 8 8 7 7 9 12 14 13 12 10 9 7 6 5 4 4 4 5 6 8 9 8 7 6 6 5 4 3 3 3
1 1 4 6 6 8 9 9 9 10 10 10 11 12 12 11 9 8 8 7 6 6 6 6 7 10 11 11 10 8 7 6 5 4 3 3 4 6 7 8 6 5 4 2 1 1 0 1 1
2 3 5 7 8 9 9 8 7 9 11 13 14 15 14 10 8 9 9 8 7 5 5 6 6 6 8 7 8 5 5 5 4 4 4 3 5 7 7 7 4 3 2 0 2 3 3 3 2
4 6 7 9 9 9 8 7 7 9 8 11 14 14 13 11 8 8 8 8 7 6 5 6 6 6 6 5 5 4 4 3 4 6 8 8 6 5 5 4 3 3 3 1 1 2 2 0 2
7 8 7 8 8 8 8 8 9 9 9 11 13 13 12 11 9 8 8 8 8 7 5 5 5 5 6 6 4 4 4 4 6 8 8 7 4 4 4 4 4 4 3 3 3 2 4 5 6
7 8 9 8 7 7 9 9 9 10 11 13 14 12 11 10 9 8 7 7 8 8 6 5 4 5 5 4 3 5 5 5 6 7 6 7 4 3 4 4 5 6 6 4 3 4 5 5 7
8 9 8 8 7 7 9 9 8 9 11 13 12 10 10 8 8 8 7 7 8 7 7 5 4 4 5 4 4 3 4 6 7 6 6 7 5 4 3 3 3 4 5 6 4 4 4 4 4
9 9 7 6 6 7 7 7 8 9 12 13 12 10 9 7 6 7 7 6 7 7 7 6 5 4 7 6 4 4 5 7 5 6 7 8 8 7 5 3 3 4 6 7 6 6 4 3 3
7 6 5 6 6 5 4 5 9 9 10 11 11 10 8 7 6 6 7 6 7 7 7 7 5 6 7 5 4 5 7 6 5 6 8 8 9 9 6 3 3 6 7 5 3 4 4 4 4
5 6 7 6 5 4 4 6 9 9 10 10 11 10 9 7 7 6 6 6 6 7 8 7 6 7 6 4 4 5 5 5 6 8 8 9 9 10 7 4 4 7 5 3 4 4 4 4 3
5 6 6 6 6 5 5 6 9 9 9 10 11 11 10 9 8 7 6 6 6 7 8 7 7 7 4 3 4 3 4 4 6 6 7 9 9 10 7 4 6 6 4 4 4 4 4 3 3
2 3 4 5 6 5 6 7 9 10 9 9 11 11 11 10 9 8 7 7 7 7 7 7 7 6 4 3 3 2 2 3 4 4 7 8 9 9 6 4 4 4 4 4 4 4 4 3 2
4 4 3 5 6 5 5 7 9 11 11 9 10 11 11 10 10 10 8 7 6 7 7 7 7 6 5 3 2 2 3 3 3 3 6 7 8 8 6 4 3 3 3 5 4 4 3 3 3
5 5 4 4 4 5 5 5 9 11 10 9 9 9 11 11 12 11 9 8 7 7 6 6 6 7 5 4 3 3 3 2 2 3 3 4 7 7 7 6 4 3 3 3 3 3 3 2 3
4 3 3 4 5 4 6 4 7 12 11 11 10 9 10 10 11 11 9 9 9 8 7 7 7 7 6 5 3 4 3 2 3 3 2 2 5 6 6 6 5 4 4 4 4 4 3 3 3
2 3 5 5 5 5 6 4 5 12 13 13 12 11 11 11 11 12 11 10 9 8 7 6 7 6 6 5 5 2 2 3 3 3 2 3 3 4 5 5 4 4 3 4 5 5 5 4 3
3 4 5 6 5 6 8 6 3 9 15 16 14 12 11 11 11 12 11 10 9 8 7 6 6 6 5 5 6 4 3 3 3 3 3 2 2 2 4 4 4 4 4 4 4 4 5 5 4
6 4 2 4 5 5 6 4 3 5 9 13 15 14 13 12 11 11 12 11 10 10 8 7 7 6 5 5 5 5 5 4 3 3 2 2 3 2 2 3 3 3 4 4 4 4 4 4 4
7 6 3 2 2 2 4 3 3 7 5 8 11 12 12 12 11 11 11 12 11 11 10 8 8 7 6 4 4 5 5 3 2 2 3 3 3 3 2 3 3 4 4 4 4 4 4 4 5
6 7 6 5 5 3 2 4 6 6 7 7 9 11 11 11 11 11 11 12 12 11 10 9 9 7 6 5 4 3 4 3 3 2 3 3 3 3 3 3 3 3 4 4 3 3 4 4 4
7 5 4 3 3 3 2 3 4 6 6 7 9 10 10 11 11 11 11 12 11 11 10 9 9 8 7 7 5 4 3 3 3 3 4 4 4 3 3 3 3 3 2 3 3 3 3 3 3
8 8 6 4 3 2 1 1 4 6 5 5 6 8 9 10 11 11 10 11 11 11 10 9 9 9 8 7 6 6 4 4 4 3 3 4 4 3 3 3 3 3 3 2 2 2 3 3 3
8 8 7 4 3 3 1 1 3 5 5 5 6 7 8 9 10 11 10 10 10 10 10 10 9 9 8 7 7 7 6 5 4 4 4 4 4 3 3 3 3 3 3 3 2 2 3 3 3
Wind_Direction
269 248 239 243 248 196 74 69 69 65 66 60 59 67 69 58 64 92 114 91 97 97 94 84 79 78 77 77 77 77 78 78 76 74 71 70 68 66 64 64 62 60 58 57 55 56 58 59 57
276 269 253 232 246 122 87 85 77 68 77 80 73 72 70 67 74 95 100 97 95 94 92 89 84 82 79 77 78 77 77 78 77 75 73 70 68 66 65 64 62 59 58 58 56 56 56 55 53
264 261 259 253 11 76 94 90 91 84 72 74 76 65 57 68 74 93 112 110 99 94 93 93 89 85 82 78 78 77 78 78 77 76 74 71 68 66 65 64 61 59 59 59 57 56 53 51 49
261 246 243 77 68 73 98 104 105 100 79 71 81 75 69 62 83 109 114 107 103 100 98 98 94 90 86 83 81 81 77 75 77 76 73 71 69 66 64 63 61 59 59 59 58 56 53 50 47
241 265 139 95 81 81 89 100 103 93 85 76 79 89 82 71 86 101 105 102 103 104 105 105 101 96 91 89 85 81 78 74 72 76 75 73 70 68 65 62 60 59 59 59 58 56 53 50 46
257 232 132 105 94 84 83 88 89 92 94 92 91 94 90 96 100 104 101 98 105 110 111 111 109 106 100 94 87 84 81 78 75 76 80 80 76 73 69 64 61 59 59 59 58 58 56 51 44
272 282 116 110 105 97 87 87 86 92 90 88 98 96 107 105 112 114 107 103 104 113 121 124 124 116 108 101 95 92 90 89 87 87 88 91 89 85 80 70 65 64 62 61 58 59 61 53 44
308 25 120 109 110 99 87 85 89 88 87 94 100 108 121 124 120 110 103 101 105 111 120 126 127 129 126 118 113 112 111 111 117 127 130 130 119 109 98 81 73 69 64 60 57 60 67 61 37
289 130 105 100 104 105 106 101 97 94 92 84 81 103 121 130 125 117 107 99 97 101 107 108 114 120 125 127 130 144 146 151 159 173 187 183 163 137 109 90 93 89 79 63 40 6 239 208 263
143 91 90 93 103 113 115 112 113 110 102 98 97 107 120 126 129 125 122 118 108 97 93 95 99 104 100 99 123 141 133 147 163 138 96 86 87 88 100 115 122 137 137 190 272 277 277 243 221
101 95 96 96 102 111 110 111 104 108 107 114 121 127 131 133 133 130 124 115 107 97 84 92 104 96 96 89 93 87 88 83 52 59 77 51 50 90 108 127 155 188 170 248 267 256 276 141 88
106 103 106 106 107 110 107 101 92 90 104 118 123 132 138 139 136 131 119 116 111 101 87 77 80 95 93 86 86 73 53 56 44 29 59 61 31 39 56 57 33 31 44 24 14 17 28 35 54
113 111 108 111 111 105 103 100 97 100 111 118 126 132 138 136 133 123 123 127 120 120 109 84 73 76 87 88 73 77 56 47 55 16 41 70 49 40 47 55 34 27 25 23 16 32 37 32 38
110 109 115 121 118 117 116 115 111 117 123 125 130 131 131 128 130 128 130 125 127 125 120 109 91 86 84 78 71 68 77 70 52 7 30 63 62 58 48 53 35 28 24 22 25 41 39 49 47
125 128 128 137 141 130 124 116 123 134 137 137 137 133 128 127 124 127 125 124 124 121 116 109 101 87 84 71 64 76 69 73 57 18 22 56 56 56 45 36 37 29 31 29 28 32 35 47 50
152 154 149 154 162 160 157 129 137 146 148 144 142 139 140 141 136 124 123 124 119 119 116 103 95 86 83 76 50 65 60 62 57 35 19 41 58 61 42 25 36 41 29 30 35 29 26 36 37
186 179 165 163 177 171 159 138 148 160 157 152 148 150 155 151 142 132 128 121 119 124 120 118 107 91 82 85 74 60 65 58 58 44 29 30 43 57 50 22 35 48 33 17 27 44 36 32 29
177 177 169 169 166 165 161 154 159 169 171 164 158 159 161 157 157 145 133 127 129 130 123 122 112 103 106 87 74 60 48 52 58 55 45 31 35 47 40 33 42 43 40 21 30 35 35 30 17
182 194 176 161 158 175 182 170 166 171 181 177 169 166 166 162 156 143 147 144 143 132 127 124 119 112 101 79 83 83 69 65 52 47 47 45 41 35 37 32 43 44 45 24 33 36 20 18 34
190 204 189 155 163 189 191 182 174 177 185 189 180 173 168 163 156 153 158 147 142 135 134 130 126 119 107 98 95 92 78 78 80 54 41 41 51 33 35 35 44 51 53 33 35 44 25 352 23
198 214 196 166 184 218 202 198 184 182 185 187 189 178 168 169 164 160 160 151 147 140 140 140 135 126 125 117 94 84 66 54 83 83 54 37 55 51 34 31 35 35 55 41 26 45 47 3 355
214 217 211 193 205 225 214 215 196 180 185 189 191 182 172 172 167 159 160 156 150 145 145 146 140 135 132 124 125 136 137 112 95 105 119 92 67 62 45 33 30 38 51 41 19 42 24 29 6
223 211 222 224 235 251 230 236 203 177 186 193 193 188 179 175 169 162 163 160 155 150 149 151 141 136 138 143 137 137 116 116 116 116 109 95 80 70 61 44 32 40 48 48 35 33 27 31 25
209 222 231 239 244 253 237 224 199 188 191 188 187 187 181 176 171 165 162 156 153 149 149 151 143 143 150 152 147 149 124 114 114 113 119 120 109 75 69 54 46 49 44 46 33 36 39 32 26
208 219 239 226 220 233 211 205 181 174 178 180 182 183 181 175 171 166 162 158 157 154 157 158 152 156 159 165 160 155 149 150 146 142 136 124 108 89 71 60 57 56 50 51 39 34 33 36 35
212 216 234 256 254 256 195 185 126 134 140 159 168 170 174 172 169 166 163 160 161 162 165 168 165 163 163 172 171 160 151 150 147 148 129 111 109 107 97 85 70 59 51 56 46 36 26 38 34
226 229 256 284 295 274 215 150 128 119 133 150 159 162 170 170 168 166 162 161 163 167 171 178 169 164 170 177 178 161 145 150 158 153 115 108 109 114 96 89 87 71 54 48 51 47 33 39 34
248 259 263 266 288 271 231 190 148 134 146 160 161 163 170 170 169 166 165 165 166 168 173 177 169 172 177 176 175 154 144 150 137 118 121 118 109 101 112 111 100 97 83 62 57 49 35 53 48
216 228 242 259 271 289 288 49 98 130 140 153 155 157 168 172 170 166 165 166 166 166 170 174 172 174 177 173 165 153 161 152 137 132 127 123 123 130 138 136 125 116 105 93 76 64 45 44 38
238 237 237 244 264 272 276 121 95 108 129 143 149 151 161 165 166 163 164 163 163 167 172 175 175 174 173 170 165 161 159 152 155 153 151 152 152 153 138 123 101 93 86 80 77 63 60 53 44
Height
1497 1498 1499 1501 1503 1505 1507 1504 1500 1501 1503 1506 1506 1507 1512 1516 1521 1533 1533 1532 1532 1532 1532 1533 1533 1533 1533 1534 1535 1535 1536 1536 1536 1536 1536 1537 1537 1537 1537 1536 1537 1537 1536 1536 1536 1535 1535 1535 1536
1497 1499 1501 1501 1504 1510 1511 1504 1505 1505 1507 1508 1509 1511 1515 1521 1526 1530 1532 1533 1533 1534 1534 1534 1535 1535 1535 1536 1537 1537 1538 1538 1538 1538 1538 1538 1538 1538 1538 1538 1538 1538 1538 1538 1537 1537 1537 1537 1537
1498 1500 1501 1500 1502 1507 1511 1505 1506 1508 1508 1509 1511 1515 1521 1526 1529 1531 1533 1534 1535 1535 1535 1536 1537 1537 1537 1538 1538 1539 1540 1540 1540 1540 1540 1540 1540 1540 1540 1539 1540 1540 1539 1539 1539 1539 1539 1539 1539
1500 1501 1501 1502 1505 1502 1503 1505 1506 1508 1510 1511 1513 1520 1527 1530 1531 1533 1535 1536 1536 1537 1537 1538 1539 1539 1539 1540 1540 1541 1542 1542 1541 1541 1541 1541 1541 1541 1541 1541 1541 1541 1541 1541 1541 1541 1540 1540 1540
1501 1501 1503 1506 1505 1502 1502 1505 1507 1510 1512 1515 1517 1524 1530 1533 1534 1535 1537 1538 1538 1539 1539 1540 1541 1541 1542 1542 1542 1543 1543 1543 1543 1543 1543 1543 1543 1543 1543 1543 1543 1543 1543 1543 1542 1542 1542 1542 1542
1502 1500 1506 1511 1508 1505 1505 1508 1509 1512 1515 1518 1522 1526 1533 1535 1536 1537 1538 1539 1540 1541 1541 1542 1543 1544 1544 1544 1545 1545 1545 1545 1545 1545 1545 1545 1545 1545 1545 1545 1545 1545 1544 1544 1544 1544 1544 1543 1544
1502 1501 1506 1508 1511 1510 1509 1510 1512 1514 1517 1520 1523 1528 1534 1536 1537 1539 1540 1541 1542 1543 1544 1544 1545 1545 1546 1547 1547 1547 1547 1547 1547 1547 1547 1547 1547 1547 1547 1547 1547 1546 1546 1546 1546 1545 1545 1545 1546
1501 1503 1506 1507 1511 1513 1511 1513 1515 1518 1520 1523 1525 1529 1535 1538 1538 1540 1541 1543 1544 1545 1546 1547 1548 1548 1548 1548 1549 1549 1550 1550 1550 1549 1549 1549 1549 1549 1549 1549 1549 1548 1548 1548 1547 1547 1547 1547 1548
1503 1507 1511 1510 1511 1513 1513 1516 1518 1521 1523 1525 1527 1530 1535 1538 1539 1541 1543 1544 1546 1547 1548 1549 1550 1550 1550 1551 1551 1551 1552 1552 1551 1551 1552 1552 1552 1552 1552 1552 1551 1550 1550 1550 1549 1549 1549 1549 1550
1503 1509 1510 1507 1509 1512 1515 1517 1519 1522 1525 1528 1531 1534 1537 1539 1540 1542 1544 1546 1547 1549 1550 1551 1552 1552 1553 1553 1553 1554 1554 1553 1553 1554 1554 1554 1554 1555 1554 1553 1553 1552 1552 1552 1552 1551 1551 1551 1551
1504 1508 1508 1509 1511 1514 1516 1518 1520 1523 1527 1530 1532 1536 1538 1540 1542 1544 1546 1548 1549 1551 1552 1552 1553 1554 1554 1555 1555 1555 1556 1556 1556 1556 1556 1555 1556 1556 1555 1555 1554 1554 1554 1553 1554 1553 1553 1553 1553
1505 1508 1510 1512 1514 1516 1518 1520 1522 1525 1529 1532 1534 1537 1539 1541 1543 1545 1547 1549 1550 1552 1553 1554 1554 1555 1555 1556 1556 1557 1557 1557 1557 1557 1557 1557 1557 1557 1557 1556 1556 1556 1556 1555 1555 1555 1555 1555 1555
1508 1510 1512 1515 1516 1518 1520 1523 1525 1528 1531 1533 1536 1539 1540 1542 1545 1547 1548 1550 1551 1552 1554 1555 1555 1556 1556 1557 1558 1558 1558 1558 1558 1558 1558 1558 1558 1558 1558 1558 1557 1557 1557 1557 1556 1556 1556 1556 1555
1511 1512 1515 1517 1518 1520 1522 1525 1527 1531 1533 1535 1538 1540 1542 1544 1546 1547 1549 1550 1552 1553 1555 1555 1557 1557 1558 1558 1559 1559 1559 1559 1559 1559 1559 1559 1559 1559 1559 1559 1559 1558 1558 1558 1558 1557 1557 1557 1557
1512 1515 1517 1518 1519 1521 1523 1527 1529 1531 1534 1536 1539 1542 1543 1545 1547 1548 1550 1551 1553 1554 1555 1556 1557 1558 1558 1559 1560 1560 1560 1560 1560 1560 1560 1560 1560 1560 1559 1560 1560 1560 1559 1559 1559 1558 1558 1558 1558
1513 1517 1523 1520 1519 1521 1526 1533 1529 1531 1534 1536 1539 1542 1544 1546 1548 1549 1551 1552 1553 1555 1556 1557 1558 1559 1559 1560 1561 1561 1561 1561 1561 1561 1561 1561 1561 1560 1560 1561 1561 1560 1560 1560 1560 1559 1559 1559 1559
1517 1524 1524 1521 1517 1519 1523 1530 1529 1531 1533 1536 1539 1542 1544 1546 1548 1550 1551 1552 1554 1555 1556 1557 1559 1559 1560 1561 1562 1562 1562 1562 1562 1562 1562 1562 1562 1561 1561 1562 1561 1561 1561 1561 1561 1560 1560 1560 1560
1521 1520 1520 1521 1517 1519 1523 1527 1528 1530 1532 1534 1537 1540 1543 1545 1548 1549 1551 1552 1554 1555 1557 1558 1559 1560 1561 1562 1562 1563 1563 1563 1563 1563 1563 1563 1563 1562 1562 1562 1562 1562 1562 1562 1561 1561 1562 1562 1561
1512 1516 1518 1516 1514 1518 1522 1524 1526 1528 1531 1533 1535 1538 1541 1544 1547 1549 1551 1552 1554 1556 1557 1558 1560 1561 1561 1562 1563 1563 1564 1564 1564 1564 1564 1564 1563 1563 1563 1563 1563 1563 1563 1562 1562 1562 1562 1563 1563
1513 1518 1518 1515 1513 1516 1520 1522 1522 1525 1528 1530 1533 1536 1539 1542 1545 1548 1550 1552 1553 1555 1557 1558 1560 1561 1562 1563 1563 1564 1565 1565 1565 1565 1565 1565 1564 1564 1564 1564 1564 1564 1563 1563 1563 1563 1563 1563 1564
1513 1516 1516 1517 1515 1514 1519 1525 1522 1523 1525 1528 1530 1533 1536 1540 1543 1546 1549 1551 1553 1555 1557 1558 1560 1561 1562 1563 1564 1565 1565 1566 1566 1566 1566 1565 1565 1565 1565 1565 1565 1565 1565 1564 1564 1564 1564 1564 1565
1515 1510 1511 1514 1520 1523 1520 1534 1523 1520 1523 1525 1528 1531 1534 1538 1541 1544 1547 1550 1552 1554 1556 1558 1560 1561 1562 1563 1564 1565 1566 1567 1567 1567 1567 1567 1566 1566 1566 1566 1566 1566 1565 1565 1565 1565 1565 1565 1565
1509 1507 1509 1512 1517 1521 1517 1526 1522 1516 1522 1523 1524 1528 1531 1535 1539 1542 1546 1549 1551 1553 1555 1558 1559 1561 1562 1563 1564 1565 1566 1567 1568 1568 1568 1568 1568 1567 1567 1567 1567 1567 1566 1566 1566 1566 1565 1566 1566
1507 1508 1510 1510 1516 1530 1516 1521 1522 1514 1513 1516 1520 1524 1528 1532 1536 1540 1544 1547 1550 1553 1555 1557 1559 1560 1562 1563 1564 1565 1566 1567 1568 1569 1569 1569 1569 1568 1568 1568 1568 1567 1567 1567 1566 1566 1566 1566 1566
1508 1517 1530 1532 1533 1527 1506 1513 1514 1503 1503 1508 1514 1519 1524 1529 1533 1538 1541 1545 1548 1551 1553 1556 1558 1560 1561 1563 1564 1565 1566 1568 1568 1569 1569 1570 1569 1569 1569 1569 1569 1568 1568 1568 1567 1567 1567 1567 1567
1508 1514 1531 1538 1533 1520 1506 1512 1505 1498 1501 1505 1510 1516 1521 1526 1531 1535 1539 1542 1546 1549 1551 1554 1556 1558 1560 1562 1564 1565 1566 1567 1568 1569 1569 1570 1570 1570 1570 1570 1569 1569 1569 1568 1568 1568 1568 1567 1567
1507 1509 1506 1516 1516 1523 1514 1505 1501 1498 1502 1505 1509 1514 1519 1524 1528 1532 1536 1540 1544 1547 1550 1552 1555 1557 1559 1561 1563 1565 1566 1567 1568 1569 1569 1570 1570 1570 1570 1570 1570 1569 1569 1569 1569 1568 1568 1568 1568
1501 1503 1509 1517 1529 1532 1519 1511 1511 1505 1504 1505 1508 1513 1517 1521 1526 1530 1534 1538 1541 1545 1548 1551 1553 1556 1558 1560 1562 1564 1565 1566 1567 1568 1569 1570 1570 1570 1570 1570 1570 1570 1570 1570 1569 1569 1569 1568 1568
1503 1505 1506 1509 1513 1527 1532 1523 1499 1502 1503 1505 1508 1511 1516 1519 1524 1528 1532 1536 1539 1543 1546 1549 1551 1554 1556 1558 1561 1562 1564 1565 1567 1567 1568 1569 1570 1570 1570 1570 1570 1570 1570 1570 1570 1569 1569 1569 1568
1496 1499 1503 1516 1517 1513 1522 1523 1498 1499 1501 1504 1506 1510 1514 1518 1522 1526 1530 1533 1537 1540 1543 1546 1549 1552 1554 1557 1559 1560 1562 1564 1565 1567 1568 1568 1569 1570 1570 1570 1570 1570 1570 1570 1570 1570 1569 1569 1569